Weather History for K9V9 - January, 2014

Change the Weather History Date:

Wednesday, January 15, 2014

  Actual Average Record
Temperature  
Mean Temperature 32 °F -  
Max Temperature 48 °F 26 °F 61 °F (2006)
Min Temperature 16 °F 7 °F -20 °F (2009)
Degree Days  
Heating Degree Days 33    
Moisture  
Dew Point 21 °F    
Average Humidity 63    
Maximum Humidity 81    
Minimum Humidity 42    
Precipitation  
Precipitation 0.00 in - - ()
Sea Level Pressure  
Sea Level Pressure 29.94 in    
Wind  
Wind Speed 10 mph (WSW)    
Max Wind Speed 31 mph    
Max Gust Speed 46 mph    
Averages and records for this station are not official NWS values.
T = Trace of Precipitation, MM = Missing Value Source: NWS Daily Summary

Daily Weather History Graph

Daily Weather History Graph

Search for Another Location

Airport or City:

Trip Planner

Search our weather history database for the weather conditions in past years. The results will help you decide how hot, cold, wet, or windy it might be!

Date:

Astronomy

Jan. 15, 2014 Rise Set
Actual Time 8:08 AM CST 5:25 PM CST
Civil Twilight 7:36 AM CST 5:57 PM CST
Nautical Twilight 7:00 AM CST 6:33 PM CST
Astronomical Twilight 6:26 AM CST 7:07 PM CST
Moon 5:27 PM CST (1/15) 7:23 AM CST (1/15)
Length of Visible Light 10h 21m
Length of Day
9h 17m
Full, 100% of the Moon is Illuminated
Jan 15
Full
Jan 15
Full
Jan 23
Last Quarter
Jan 30
New
Feb 6
First Quarter

Hourly Weather History & Observations

Time (CST) Temp. Windchill Dew Point Humidity Pressure Visibility Wind Dir Wind Speed Gust Speed Precip Events Conditions
12:52 AM 16.0 °F 6.3 °F 8.1 °F 71% 30.30 in - NW 6.9 mph - N/A   Unknown
1:52 AM 18.0 °F 7.7 °F 9.0 °F 68% 30.26 in - NW 8.1 mph - N/A   Unknown
2:52 AM 18.0 °F - 10.9 °F 74% 30.25 in - Calm Calm - N/A   Unknown
3:52 AM 16.0 °F 10.4 °F 10.9 °F 81% 30.24 in - South 3.5 mph - N/A   Unknown
4:52 AM 18.0 °F 12.7 °F 12.9 °F 81% 30.21 in - SSE 3.5 mph - N/A   Unknown
5:52 AM 19.9 °F 11.1 °F 14.0 °F 78% 30.17 in - SSW 6.9 mph - N/A   Unknown
6:52 AM 19.9 °F 10.1 °F 15.1 °F 81% 30.12 in - SSW 8.1 mph - N/A   Unknown
7:52 AM 21.9 °F 13.4 °F 15.1 °F 75% 30.07 in - South 6.9 mph - N/A   Unknown
8:52 AM 24.1 °F 15.2 °F 17.1 °F 75% 30.03 in - South 8.1 mph - N/A   Unknown
9:52 AM 27.0 °F 15.6 °F 18.0 °F 69% 30.00 in - South 13.8 mph - N/A   Unknown
10:52 AM 32.0 °F 23.0 °F 21.0 °F 64% 29.95 in - South 11.5 mph - N/A   Unknown
11:52 AM 35.1 °F 26.4 °F 23.0 °F 61% 29.88 in - SSW 12.7 mph - N/A   Unknown
12:52 PM 41.0 °F 33.9 °F 26.1 °F 55% 29.79 in - SW 12.7 mph - N/A   Unknown
1:52 PM 45.0 °F 38.5 °F 28.0 °F 52% 29.76 in - West 13.8 mph - N/A   Unknown
2:52 PM 48.0 °F - 27.0 °F 44% 29.75 in - WNW 16.1 mph - N/A   Unknown
3:52 PM 48.0 °F - 28.9 °F 48% 29.74 in - WNW 21.9 mph 32.2 mph N/A   Unknown
4:52 PM 46.0 °F 41.4 °F 28.9 °F 51% 29.75 in - WNW 9.2 mph - N/A   Unknown
5:52 PM 42.1 °F 34.9 °F 28.9 °F 60% 29.76 in - WNW 13.8 mph - N/A   Unknown
6:52 PM 41.0 °F 33.1 °F 28.9 °F 62% 29.77 in - NW 15.0 mph - N/A   Unknown
7:52 PM 45.0 °F 36.6 °F 30.0 °F 56% 29.79 in - NNW 21.9 mph 32.2 mph N/A   Unknown
8:52 PM 44.1 °F 36.5 °F 28.9 °F 55% 29.78 in - WNW 17.3 mph - N/A   Unknown
9:52 PM 44.1 °F 35.9 °F 26.1 °F 49% 29.74 in - WNW 19.6 mph 28.8 mph N/A   Unknown
10:52 PM 44.1 °F 33.8 °F 21.9 °F 42% 29.74 in - NW 31.1 mph 46.0 mph N/A   Unknown
11:52 PM 41.0 °F 30.0 °F 24.1 °F 51% 29.75 in - NW 28.8 mph 44.9 mph N/A   Unknown